EW1134 Weather Reports


Display with metric or nautical units.
time (UTC)temp
F
wind
direction
speed
MPH
gust
MPH
rain 1hr
in
rain 24hr
in
rain mn
in
humidity
%
barometer
mb
20260902120503 95 10 6.0 14.0 0.00 0.00 0.00 19 1015.0
20260902120004 95 346 6.0 14.0 0.00 0.00 0.00 19 1015.0
20260902115503 95 334 7.0 15.0 0.00 0.00 0.00 18 1015.1
20260902115004 95 344 6.0 15.0 0.00 0.00 0.00 19 1015.0
20260902114505 95 21 4.0 11.0 0.00 0.00 0.00 20 1015.1
20260902114004 94 71 6.0 12.0 0.00 0.00 0.00 19 1015.2
20260902112504 95 51 6.0 13.0 0.00 0.00 0.00 18 1015.3
20260902111004 94 89 5.0 12.0 0.00 0.00 0.00 21 1015.5
20260902110503 94 45 5.0 13.0 0.00 0.00 0.00 21 1015.6
20260902110007 94 12 6.0 13.0 0.00 0.00 0.00 20 1015.7
20260902105504 94 17 7.0 16.0 0.00 0.00 0.00 21 1015.5
20260902105003 94 17 8.0 16.0 0.00 0.00 0.00 20 1015.5
20260902104504 94 30 6.0 17.0 0.00 0.00 0.00 22 1015.4
20260902104003 94 49 5.0 17.0 0.00 0.00 0.00 22 1015.6
20260902103504 94 40 6.0 13.0 0.00 0.00 0.00 22 1015.6
20260902103005 94 349 6.0 16.0 0.00 0.00 0.00 23 1015.7
20260902102504 94 322 6.0 16.0 0.00 0.00 0.00 23 1015.7
20260902101505 93 1 7.0 14.0 0.00 0.00 0.00 24 1015.8
20260902100504 93 8 7.0 16.0 0.00 0.00 0.00 24 1015.8
20260902100005 93 10 6.0 16.0 0.00 0.00 0.00 24 1015.8
20260902095504 93 40 7.0 13.0 0.00 0.00 0.00 25 1015.8
20260902095004 93 22 7.0 13.0 0.00 0.00 0.00 25 1015.9
20260902094504 93 353 6.0 14.0 0.00 0.00 0.00 25 1016.0
20260902094004 92 348 6.0 14.0 0.00 0.00 0.00 26 1016.0
20260902093504 92 355 6.0 14.0 0.00 0.00 0.00 26 1016.0
20260902093004 92 352 6.0 13.0 0.00 0.00 0.00 27 1016.0
20260902092504 92 36 6.0 13.0 0.00 0.00 0.00 27 1016.0
20260902092003 92 44 6.0 14.0 0.00 0.00 0.00 27 1016.1
20260902091004 92 354 7.0 14.0 0.00 0.00 0.00 27 1016.1
20260902090503 92 6 6.0 14.0 0.00 0.00 0.00 26 1015.9
20260902090005 92 355 6.0 14.0 0.00 0.00 0.00 27 1016.1
20260902085503 92 354 6.0 14.0 0.00 0.00 0.00 27 1015.9
20260902085003 92 4 6.0 13.0 0.00 0.00 0.00 27 1016.0
20260902084004 91 8 5.0 13.0 0.00 0.00 0.00 29 1016.0
20260902083504 90 23 4.0 13.0 0.00 0.00 0.00 29 1016.1
20260902083004 90 332 4.0 13.0 0.00 0.00 0.00 30 1016.1
20260902082503 90 341 6.0 13.0 0.00 0.00 0.00 30 1016.2
20260902082003 90 335 5.0 13.0 0.00 0.00 0.00 30 1016.2
20260902081504 90 346 4.0 13.0 0.00 0.00 0.00 31 1016.2
20260902081004 89 12 4.0 13.0 0.00 0.00 0.00 32 1016.3
20260902080504 89 21 5.0 13.0 0.00 0.00 0.00 31 1016.3
20260902075503 88 26 7.0 12.0 0.00 0.00 0.00 32 1016.3
20260902075003 88 5 6.0 10.0 0.00 0.00 0.00 35 1016.2
20260902074504 88 12 4.0 10.0 0.00 0.00 0.00 35 1016.3
20260902074003 87 19 5.0 12.0 0.00 0.00 0.00 36 1016.2
20260902073503 87 359 6.0 12.0 0.00 0.00 0.00 37 1016.2
20260902073004 87 352 5.0 12.0 0.00 0.00 0.00 37 1016.3
20260902072504 86 11 5.0 10.0 0.00 0.00 0.00 39 1016.1
20260902072004 86 15 5.0 10.0 0.00 0.00 0.00 40 1016.2
20260902071003 85 354 4.0 10.0 0.00 0.00 0.00 42 1016.2
20260902070504 84 342 2.0 8.0 0.00 0.00 0.00 44 1016.2
20260902070006 83 236 2.0 4.0 0.00 0.00 0.00 46 1016.0
20260902065503 83 217 2.0 4.0 0.00 0.00 0.00 46 1016.2
20260902065003 82 211 1.0 4.0 0.00 0.00 0.00 46 1016.1
20260902064504 82 212 2.0 5.0 0.00 0.00 0.00 47 1016.1
20260902064004 81 206 3.0 5.0 0.00 0.00 0.00 47 1016.2
20260902063504 81 198 2.0 4.0 0.00 0.00 0.00 47 1016.2
20260902063005 80 199 2.0 4.0 0.00 0.00 0.00 47 1016.0
20260902062504 80 213 1.0 4.0 0.00 0.00 0.00 48 1016.2
20260902062004 79 223 2.0 4.0 0.00 0.00 0.00 48 1016.2
20260902061003 79 218 2.0 4.0 0.00 0.00 0.00 49 1016.2
20260902060503 78 214 2.0 4.0 0.00 0.00 0.00 49 1016.2
20260902060004 78 216 2.0 4.0 0.00 0.00 0.00 50 1016.2
20260902055503 78 226 1.0 4.0 0.00 0.00 0.00 50 1016.3
20260902055004 77 226 1.0 4.0 0.00 0.00 0.00 51 1016.3
20260902054504 77 222 1.0 4.0 0.00 0.00 0.00 52 1016.3
20260902054004 77 225 0.0 3.0 0.00 0.00 0.00 52 1016.2
20260902053004 75 250 0.0 2.0 0.00 0.00 0.00 54 1016.0
20260902052503 74 252 0.0 2.0 0.00 0.00 0.00 55 1016.3
20260902052004 74 256 0.0 2.0 0.00 0.00 0.00 56 1016.2
20260902051504 73 258 0.0 2.0 0.00 0.00 0.00 56 1016.2
20260902051004 72 228 0.0 3.0 0.00 0.00 0.00 56 1016.2
20260902050503 72 230 0.0 3.0 0.00 0.00 0.00 56 1016.2
20260902050007 72 233 0.0 3.0 0.00 0.00 0.00 56 1016.3
20260902045503 71 226 1.0 3.0 0.00 0.00 0.00 56 1016.2
20260902044504 71 196 1.0 4.0 0.00 0.00 0.00 57 1016.0
20260902043503 71 235 1.0 3.0 0.00 0.00 0.00 57 1016.0
20260902043005 70 241 1.0 3.0 0.00 0.00 0.00 57 1015.9
20260902042504 70 245 0.0 3.0 0.00 0.00 0.00 57 1016.0
20260902042003 70 237 0.0 3.0 0.00 0.00 0.00 57 1016.1
20260902041504 70 209 0.0 3.0 0.00 0.00 0.00 57 1016.0
20260902041003 70 195 0.0 2.0 0.00 0.00 0.00 57 1016.1
20260902040503 70 187 0.0 2.0 0.00 0.00 0.00 57 1016.1
20260902035504 70 211 0.0 3.0 0.00 0.00 0.00 56 1016.0
20260902034504 70 195 0.0 3.0 0.00 0.00 0.00 56 1015.8
20260902034003 70 219 0.0 3.0 0.00 0.00 0.00 56 1015.9
20260902033504 70 225 0.0 3.0 0.00 0.00 0.00 55 1015.7
20260902033005 70 211 1.0 4.0 0.00 0.00 0.00 55 1015.8
20260902032504 70 216 2.0 4.0 0.00 0.00 0.00 55 1015.7
20260902032003 71 223 2.0 4.0 0.00 0.00 0.00 54 1015.6
20260902031504 71 219 2.0 4.0 0.00 0.00 0.00 54 1015.6
20260902030004 71 222 2.0 6.0 0.00 0.00 0.00 55 1015.6
20260902025504 71 200 1.0 5.0 0.00 0.00 0.00 55 1015.5
20260902024504 71 229 0.0 3.0 0.00 0.00 0.00 55 1015.4
20260902024004 71 252 0.0 3.0 0.00 0.00 0.00 55 1015.5
20260902023004 72 232 0.0 3.0 0.00 0.00 0.00 54 1015.5
20260902022503 72 234 0.0 2.0 0.00 0.00 0.00 54 1015.4
20260902022003 72 228 0.0 2.0 0.00 0.00 0.00 54 1015.5
20260902021003 72 222 0.0 3.0 0.00 0.00 0.00 54 1015.4
20260902020004 72 246 0.0 3.0 0.00 0.00 0.00 53 1015.3
20260902015503 72 215 1.0 3.0 0.00 0.00 0.00 53 1015.3
20260902015004 72 199 1.0 4.0 0.00 0.00 0.00 53 1015.4
20260902014504 72 203 0.0 4.0 0.00 0.00 0.00 53 1015.4
20260902014003 72 246 0.0 4.0 0.00 0.00 0.00 53 1015.3
20260902013004 72 283 0.0 3.0 0.00 0.00 0.00 53 1015.2
20260902012504 73 252 0.0 3.0 0.00 0.00 0.00 53 1015.2
20260902012003 73 223 0.0 3.0 0.00 0.00 0.00 52 1015.4
20260902011504 73 212 0.0 3.0 0.00 0.00 0.00 52 1015.4
20260902011004 73 155 0.0 4.0 0.00 0.00 0.00 52 1015.3
20260902010504 73 187 1.0 4.0 0.00 0.00 0.00 52 1015.3
20260902010004 73 230 2.0 4.0 0.00 0.00 0.00 52 1015.2
20260902005503 73 263 2.0 4.0 0.00 0.00 0.00 51 1015.1
20260902005003 73 263 2.0 5.0 0.00 0.00 0.00 51 1015.1
20260902004504 73 256 2.0 6.0 0.00 0.00 0.00 50 1015.0
20260902003503 74 225 2.0 6.0 0.00 0.00 0.00 50 1015.0
20260902003004 74 228 2.0 6.0 0.00 0.00 0.00 50 1014.9
20260902002504 74 248 1.0 5.0 0.00 0.00 0.00 51 1015.1
20260902001004 74 265 1.0 4.0 0.00 0.00 0.00 50 1015.0
20260902000004 74 217 1.0 4.0 0.00 0.00 0.00 50 1015.0
20260901235503 74 255 1.0 4.0 0.00 0.00 0.00 50 1014.9
20260901235004 74 254 1.0 4.0 0.00 0.00 0.00 50 1014.9
20260901234504 74 248 1.0 4.0 0.00 0.00 0.00 50 1014.9
20260901233004 74 230 1.0 4.0 0.00 0.00 0.00 50 1014.9
20260901232503 74 236 0.0 3.0 0.00 0.00 0.00 49 1015.0
20260901232004 74 236 0.0 3.0 0.00 0.00 0.00 49 1015.0
20260901231504 74 194 0.0 4.0 0.00 0.00 0.00 48 1015.2
20260901231003 74 205 1.0 4.0 0.00 0.00 0.00 48 1015.0
20260901230504 75 234 1.0 4.0 0.00 0.00 0.00 48 1015.1
20260901230005 75 253 1.0 3.0 0.00 0.00 0.00 48 1015.1
20260901225504 75 231 1.0 4.0 0.00 0.00 0.00 47 1015.0
20260901225003 75 232 1.0 4.0 0.00 0.00 0.00 47 1015.1
20260901224504 75 246 0.0 3.0 0.00 0.00 0.00 47 1015.0
20260901224004 75 245 0.0 3.0 0.00 0.00 0.00 47 1015.0
20260901223504 75 245 0.0 3.0 0.00 0.00 0.00 47 1014.9
20260901223005 76 226 0.0 3.0 0.00 0.00 0.00 47 1015.2
20260901222004 75 188 0.0 2.0 0.00 0.00 0.00 47 1015.1
20260901221504 76 0 0.0 0.0 0.00 0.00 0.00 46 1015.1
20260901221003 76 0 0.0 0.0 0.00 0.00 0.00 46 1015.2
20260901220504 76 0 0.0 0.0 0.00 0.00 0.00 46 1015.1
20260901220004 76 225 0.0 2.0 0.00 0.00 0.00 46 1015.2
20260901215503 76 209 0.0 3.0 0.00 0.00 0.00 46 1015.2
20260901215003 76 198 0.0 3.0 0.00 0.00 0.00 46 1015.0
20260901214504 76 135 0.0 2.0 0.00 0.00 0.00 46 1015.0
20260901214004 76 135 0.0 2.0 0.00 0.00 0.00 46 1015.0
20260901213503 76 135 0.0 2.0 0.00 0.00 0.00 46 1014.8
20260901213004 76 0 0.0 0.0 0.00 0.00 0.00 45 1014.8
20260901212503 77 181 0.0 2.0 0.00 0.00 0.00 45 1015.0
20260901211504 77 220 0.0 3.0 0.00 0.00 0.00 45 1014.9
20260901211003 77 203 0.0 3.0 0.00 0.00 0.00 45 1014.9
20260901205504 78 253 1.0 4.0 0.00 0.00 0.00 44 1015.0
20260901205004 78 250 1.0 4.0 0.00 0.00 0.00 44 1014.9
20260901204504 78 242 1.0 4.0 0.00 0.00 0.00 44 1014.8
20260901204004 78 243 1.0 4.0 0.00 0.00 0.00 44 1015.0
20260901203504 78 236 1.0 4.0 0.00 0.00 0.00 44 1014.8
20260901203004 78 235 1.0 4.0 0.00 0.00 0.00 44 1014.8
20260901202003 78 230 1.0 4.0 0.00 0.00 0.00 43 1014.8
20260901201504 78 221 1.0 4.0 0.00 0.00 0.00 43 1014.8
20260901200504 79 216 1.0 4.0 0.00 0.00 0.00 42 1014.8
20260901195504 79 241 1.0 4.0 0.00 0.00 0.00 42 1014.9
20260901195004 79 224 1.0 4.0 0.00 0.00 0.00 42 1014.8
20260901193504 80 224 1.0 4.0 0.00 0.00 0.00 41 1014.8
20260901193004 80 226 1.0 4.0 0.00 0.00 0.00 41 1014.9
20260901192503 80 230 2.0 4.0 0.00 0.00 0.00 40 1014.8
20260901192003 80 228 2.0 4.0 0.00 0.00 0.00 40 1014.8
20260901191504 81 225 3.0 4.0 0.00 0.00 0.00 40 1014.8
20260901191003 81 225 2.0 4.0 0.00 0.00 0.00 39 1014.8
20260901190005 82 234 1.0 3.0 0.00 0.00 0.00 38 1014.7
20260901185003 82 181 0.0 2.0 0.00 0.00 0.00 39 1014.7
20260901184504 82 196 0.0 3.0 0.00 0.00 0.00 39 1014.6
20260901184004 83 212 1.0 3.0 0.00 0.00 0.00 38 1014.5
20260901183004 83 201 1.0 4.0 0.00 0.00 0.00 38 1014.5
20260901182503 83 172 1.0 3.0 0.00 0.00 0.00 38 1014.6
20260901182003 83 148 0.0 3.0 0.00 0.00 0.00 38 1014.4
20260901181504 83 99 0.0 2.0 0.00 0.00 0.00 38 1014.4
20260901181004 83 68 0.0 2.0 0.00 0.00 0.00 38 1014.3
20260901180503 84 79 0.0 2.0 0.00 0.00 0.00 38 1014.3
20260901180004 84 90 0.0 1.0 0.00 0.00 0.00 37 1014.2
20260901175503 84 50 0.0 2.0 0.00 0.00 0.00 37 1014.1
20260901175003 84 43 0.0 3.0 0.00 0.00 0.00 37 1014.1
20260901174503 84 45 1.0 3.0 0.00 0.00 0.00 36 1014.1
20260901174004 85 51 0.0 3.0 0.00 0.00 0.00 36 1014.1
20260901173504 85 71 0.0 3.0 0.00 0.00 0.00 36 1013.9
20260901173005 85 90 0.0 3.0 0.00 0.00 0.00 35 1014.0
20260901172504 86 95 0.0 2.0 0.00 0.00 0.00 34 1013.8
20260901172003 86 86 1.0 4.0 0.00 0.00 0.00 34 1013.8
20260901171504 86 73 1.0 4.0 0.00 0.00 0.00 34 1013.8
20260901171003 86 87 2.0 4.0 0.00 0.00 0.00 33 1013.7
20260901170504 87 114 1.0 4.0 0.00 0.00 0.00 33 1013.8
20260901165504 87 93 2.0 4.0 0.00 0.00 0.00 32 1013.6
20260901165004 87 108 2.0 5.0 0.00 0.00 0.00 32 1013.7
20260901164504 87 110 2.0 5.0 0.00 0.00 0.00 32 1013.7
20260901164003 88 99 3.0 7.0 0.00 0.00 0.00 31 1013.7
20260901163004 88 85 4.0 7.0 0.00 0.00 0.00 31 1013.6
20260901162504 88 100 4.0 9.0 0.00 0.00 0.00 31 1013.7
20260901162003 89 117 4.0 9.0 0.00 0.00 0.00 31 1013.5
20260901161004 89 67 4.0 9.0 0.00 0.00 0.00 30 1013.4
20260901155504 91 72 5.0 8.0 0.00 0.00 0.00 29 1013.4
20260901155004 91 62 4.0 8.0 0.00 0.00 0.00 29 1013.4
20260901154504 91 54 3.0 8.0 0.00 0.00 0.00 29 1013.2
20260901153004 91 70 5.0 10.0 0.00 0.00 0.00 28 1013.1
20260901152503 91 89 4.0 9.0 0.00 0.00 0.00 28 1013.1
20260901152004 91 94 4.0 9.0 0.00 0.00 0.00 28 1013.1
20260901151504 92 87 5.0 10.0 0.00 0.00 0.00 28 1013.1
20260901151004 92 79 6.0 11.0 0.00 0.00 0.00 28 1013.1
20260901150004 92 39 4.0 9.0 0.00 0.00 0.00 28 1013.1
20260901145504 93 17 4.0 9.0 0.00 0.00 0.00 27 1013.2
20260901145003 93 19 4.0 9.0 0.00 0.00 0.00 27 1013.3
20260901144504 93 39 4.0 9.0 0.00 0.00 0.00 27 1013.2
20260901144004 93 59 3.0 8.0 0.00 0.00 0.00 27 1013.1
20260901143503 93 78 2.0 6.0 0.00 0.00 0.00 27 1013.1
20260901143004 92 72 4.0 9.0 0.00 0.00 0.00 27 1013.1
20260901142503 92 70 4.0 9.0 0.00 0.00 0.00 27 1013.3
20260901142003 93 66 4.0 9.0 0.00 0.00 0.00 27 1013.3
20260901141504 93 56 4.0 9.0 0.00 0.00 0.00 27 1013.4
20260901141003 93 48 4.0 11.0 0.00 0.00 0.00 27 1013.3
20260901140504 93 69 4.0 11.0 0.00 0.00 0.00 26 1013.3
20260901140004 93 62 4.0 9.0 0.00 0.00 0.00 27 1013.3
20260901135003 93 73 5.0 11.0 0.00 0.00 0.00 27 1013.3
20260901134504 93 50 4.0 9.0 0.00 0.00 0.00 27 1013.3
20260901133004 93 34 5.0 10.0 0.00 0.00 0.00 27 1013.5
20260901132503 93 51 4.0 9.0 0.00 0.00 0.00 27 1013.4
20260901132004 93 72 4.0 9.0 0.00 0.00 0.00 27 1013.6
20260901131504 94 83 5.0 9.0 0.00 0.00 0.00 26 1013.6
20260901131004 94 32 5.0 15.0 0.00 0.00 0.00 26 1013.5
20260901130504 94 9 5.0 15.0 0.00 0.00 0.00 27 1013.5
20260901130004 94 27 4.0 15.0 0.00 0.00 0.00 27 1013.6
20260901125503 94 42 4.0 10.0 0.00 0.00 0.00 27 1013.6
20260901125004 94 34 4.0 11.0 0.00 0.00 0.00 26 1013.6
20260901124003 94 39 4.0 10.0 0.00 0.00 0.00 26 1013.8
20260901123503 94 30 4.0 8.0 0.00 0.00 0.00 27 1013.7
20260901123004 94 38 5.0 10.0 0.00 0.00 0.00 27 1013.9
20260901122504 93 58 6.0 13.0 0.00 0.00 0.00 27 1013.9
20260901122004 94 73 5.0 13.0 0.00 0.00 0.00 27 1013.9
20260901121504 93 74 4.0 10.0 0.00 0.00 0.00 28 1013.9